{"data":{"norad_id":67545,"epoch":"2026-09-19T03:31:21.492192Z","epoch_age_seconds":189204,"freshness":"STALE","line1":"1 67545U 26014P   26262.14677653  .00010806  00000+0  33648-3 0  9998","line2":"2 67545  97.2833 147.5752 0002715  75.1745 284.9799 15.33451097 38430","mean_motion":15.33451097,"eccentricity":0.0002715,"inclination_deg":97.2833,"raan_deg":147.5752,"arg_perigee_deg":75.1745,"mean_anomaly_deg":284.9799,"bstar":0.00033648,"rev_number":3843,"period_min":93.905831285861,"perigee_km":463.66697991357,"apogee_km":467.38308839811,"semimajor_km":6843.6620341558,"source":"CELESTRAK","updated_at":"2026-09-20T09:00:43.569490Z"}}